Погода в Осиново

Россия / Республика Татарстан     55°52′39″N   48°53′23″E
темп.,
°C
ветер,
м/с
пор.,
м/с
влажн.,
%
обл.,
%
осадки,
мм/ч
давл.,
гПа
погр.,
м
9 декабря, чт
чт900:00−1ююв51298100 0.0 1025377
03:00−1ююв51197100 0.0 1025442
06:00−1ююв51097100 0.0 1024447
09:00−2ююв51096100 0.0 1024396
12:00−2ююв4996100 0.0 1023405
15:00−3ююв3695100 0.1 1023220
18:00−4ююв3697100 0.0 1023174
21:00−3ю2497100 0.1 1023142
10 декабря, пт
пт1000:00−3юз1198100 0.2 102444
03:00−3ссз4697100 0.3 1025289
06:00−11ссз38957 0.1 1028150
09:00−14с310915 0.1 1031188
12:00−11с49885 0.0 1032272
15:00−14с36915 0.0 1034121
18:00−15ссв511915 0.0 1036222
21:00−15ссв411895 0.0 1037217
11 декабря, сб
сб1100:00−16св411915 0.0 1038198
03:00−16св411905 0.0 1039192
06:00−16св410905 0.0 1040174
09:00−16св410905 0.0 1041179
12:00−12св49865 0.0 1041211
15:00−14св38885 0.0 1042118
18:00−14св37905 0.0 1043102
21:00−14всв27925 0.0 104395
12 декабря, вс
вс1200:00−16всв22945 0.0 104420
03:00−16всв22945 0.0 104416
06:00−16в11945 0.0 104411
09:00−16в11925 0.0 104514
12:00−10юв24845 0.0 104496
15:00−13юв11915 0.0 104410
18:00−15юв22935 0.0 104411
21:00−15ююв119437 0.0 104310
13 декабря, пн
пн1300:00−15ююв229632 0.0 104311
03:00−16ююв22967 0.0 104311
06:00−16ююз229672 0.0 104213
09:00−15ю22915 0.0 104115
12:00−9ююз238647 0.0 104071
15:00−12ю229079 0.0 104012
18:00−13ю2291100 0.0 103919
21:00−12ю2389100 0.0 103836